AFL1702 UUEE-UHWW

Flight info

Callsign AFL1702
Flight time N/A
Altitude 35000
Route RILPO3H RILPO T753 TUNOB T791 MOVUN P149 SONIB N174 KEDOR T541 TURMA/K0874F370 T541 LEBNA L168 IVADA DCT HAB/K0876F380 DCT ARDEL B355 BG G714 DAGES DAGES2N
Aircraft B77W/H-SDE1E2E3FGHIJ2J3J4J5M1RWXY/LB1D1

Departure

Time 2026-05-04 22:20
Airport Sheremetyevo International Airport (UUEE)

Arrival

Time N/A
Airport Vladivostok International Airport (UHWW)
Time Latitude Longitude Altitude Speed Heading
2026-05-04 21:50 55.97802 37.41009 629 ft 0 kts 75°
2026-05-04 22:07 55.97801 37.41001 629 ft 2 kts 75°
2026-05-04 22:07 55.97797 37.40976 628 ft 2 kts 75°
2026-05-04 22:07 55.97793 37.40950 629 ft 2 kts 75°
2026-05-04 22:07 55.97790 37.40924 629 ft 2 kts 84°
2026-05-04 22:08 55.97791 37.40898 628 ft 2 kts 106°
2026-05-04 22:08 55.97797 37.40874 629 ft 2 kts 123°
2026-05-04 22:08 55.97806 37.40854 629 ft 2 kts 141°
2026-05-04 22:08 55.97819 37.40840 628 ft 2 kts 158°
2026-05-04 22:09 55.97826 37.40835 629 ft 0 kts 166°
2026-05-04 22:09 55.97827 37.40835 629 ft 0 kts 166°
2026-05-04 22:11 55.97808 37.40843 628 ft 5 kts 166°
2026-05-04 22:12 55.97748 37.40869 629 ft 10 kts 165°
2026-05-04 22:12 55.97684 37.40899 628 ft 8 kts 165°
2026-05-04 22:12 55.97629 37.40925 628 ft 6 kts 165°
2026-05-04 22:12 55.97606 37.40964 627 ft 4 kts 93°
2026-05-04 22:13 55.97612 37.41026 628 ft 5 kts 76°
2026-05-04 22:13 55.97618 37.41095 628 ft 4 kts 98°
2026-05-04 22:13 55.97596 37.41135 628 ft 5 kts 163°
2026-05-04 22:13 55.97553 37.41158 628 ft 7 kts 159°
2026-05-04 22:14 55.97536 37.41213 628 ft 6 kts 82°
2026-05-04 22:14 55.97549 37.41318 628 ft 10 kts 76°
2026-05-04 22:14 55.97573 37.41482 627 ft 16 kts 75°
2026-05-04 22:14 55.97605 37.41699 625 ft 20 kts 75°
2026-05-04 22:15 55.97643 37.41954 622 ft 22 kts 75°
2026-05-04 22:15 55.97685 37.42234 619 ft 24 kts 75°
2026-05-04 22:15 55.97729 37.42530 617 ft 25 kts 75°
2026-05-04 22:15 55.97775 37.42839 614 ft 26 kts 75°
2026-05-04 22:16 55.97821 37.43150 615 ft 25 kts 75°
2026-05-04 22:16 55.97862 37.43426 619 ft 21 kts 75°
2026-05-04 22:16 55.97897 37.43664 621 ft 17 kts 75°
2026-05-04 22:16 55.97925 37.43849 624 ft 14 kts 75°
2026-05-04 22:17 55.97942 37.43963 624 ft 5 kts 75°
2026-05-04 22:17 55.97936 37.44008 624 ft 3 kts 127°
2026-05-04 22:17 55.97914 37.44033 624 ft 5 kts 161°
2026-05-04 22:17 55.97860 37.44058 622 ft 10 kts 165°
2026-05-04 22:18 55.97772 37.44101 621 ft 15 kts 165°
2026-05-04 22:18 55.97671 37.44149 619 ft 14 kts 165°
2026-05-04 22:18 55.97584 37.44190 619 ft 9 kts 165°
2026-05-04 22:18 55.97551 37.44191 619 ft 3 kts 216°
2026-05-04 22:19 55.97537 37.44146 619 ft 4 kts 249°
2026-05-04 22:19 55.97516 37.44017 616 ft 30 kts 254°
2026-05-04 22:19 55.97397 37.43214 607 ft 102 kts 255°
2026-05-04 22:19 55.97161 37.41620 624 ft 161 kts 254°
2026-05-04 22:20 55.96861 37.39569 1096 ft 174 kts 253°
2026-05-04 22:20 55.96549 37.37518 1918 ft 173 kts 253°
2026-05-04 22:20 55.96224 37.35423 2362 ft 183 kts 253°
2026-05-04 22:20 55.95878 37.33128 2693 ft 201 kts 254°
2026-05-04 22:21 55.95502 37.30619 3094 ft 218 kts 255°
2026-05-04 22:21 55.95096 37.27910 3542 ft 235 kts 255°
2026-05-04 22:21 55.94667 37.25055 4168 ft 244 kts 255°
2026-05-04 22:21 55.94229 37.22139 4914 ft 247 kts 255°
2026-05-04 22:22 55.93824 37.19151 5613 ft 252 kts 263°
2026-05-04 22:22 55.93978 37.16044 6306 ft 259 kts 286°
2026-05-04 22:22 55.94878 37.13260 6981 ft 268 kts 310°
2026-05-04 22:22 55.96426 37.11368 7649 ft 280 kts 336°
2026-05-04 22:23 55.98305 37.10426 8382 ft 284 kts 342°
2026-05-04 22:23 56.00220 37.09630 9110 ft 286 kts 343°
2026-05-04 22:23 56.02161 37.08833 9774 ft 289 kts 343°
2026-05-04 22:23 56.04125 37.08027 10454 ft 292 kts 343°
2026-05-04 22:24 56.06105 37.07214 11128 ft 295 kts 343°
2026-05-04 22:24 56.08121 37.06502 11787 ft 302 kts 353°
2026-05-04 22:24 56.10222 37.07030 12448 ft 314 kts 19°
2026-05-04 22:24 56.12083 37.09110 12975 ft 324 kts 43°
2026-05-04 22:25 56.13345 37.12436 13202 ft 326 kts 70°
2026-05-04 22:25 56.13844 37.16400 13613 ft 330 kts 81°
2026-05-04 22:25 56.14242 37.20432 13970 ft 331 kts 79°